Zurück zum Katalog

TIANQI XINGZUO 1-02

AktivKommunikationVLEO
NORAD 44311·PAYLOAD·🇨🇳 China
Dieser Satellitenname wurde noch nicht durch offizielle Quellen bestätigt.

Gestartet Jun 5, 2019 von Yellow Sea Launch Area

Loading…

Nächste Überflüge (nächste 24 Stunden)

TLE

AktuellSource: Space-Track

Epoche: Sep 14, 2026, 10:15 UTC

1 44311U 19032B   26257.42710433  .00007868  00000-0  28023-3 0  9991
2 44311  44.9712 241.9482 0025115 126.0756 234.2458 15.29216588401407

Verfolge TIANQI XINGZUO 1-02 in Echtzeit mit AllMySat

Download on the App Store